GFSSE_con_mlcape_333.txt.gz
CAPE
663 1553 1489 1684 1637 1653 1834 1641 1515 1374 1209 1099 999 1142 1377 1240 1181 1301 1415 1323 1382 1374 1321 1155 935 848 667 1418 1616 1620 1680 1699 1714 1553 1563 1526 1452 2198 2234 2196 2242 2320 2652
907 1636 1543 1740 1682 1600 1580 1765 1711 1868 1303 1153 1131 1343 1489 1645 1590 1414 1264 1364 1407 1301 1419 1355 1322 1336 1247 1362 1419 1463 1610 1494 1253 1341 1409 1911 1969 1961 2031 1906 1938 2382 2618
1105 1499 1254 1656 1830 1533 1609 1768 1761 1714 1705 1822 1766 1736 1663 1628 1477 1460 1496 1290 1342 1414 1257 1163 1215 1079 844 1243 1570 1216 1412 1234 1118 980 1161 1257 1686 1769 1944 2088 2410 2321 2488
1348 1496 1262 1517 1758 1563 1417 1513 1734 1653 1761 1616 1592 1557 1692 1633 1608 1587 1479 1239 1360 1115 1266 1328 1253 1218 905 555 650 1290 1223 1010 890 767 985 1183 1341 1821 1903 2203 2329 2224 2196
1203 1262 1368 1535 1548 1510 1095 1393 1754 1660 1686 1494 1418 1606 1664 1671 1317 1238 1635 1145 1290 1345 1351 1166 1200 1086 886 877 761 833 838 641 476 517 947 1165 1063 1661 1769 1880 1486 1877 1734
1165 1213 1361 1459 1427 1134 1177 1418 1527 1646 1484 1516 1287 1550 1591 1337 841 1132 1298 1488 1422 1283 1120 1118 1094 1032 869 989 984 927 803 753 701 623 491 918 1020 1584 1773 1893 1876 1645 1403
1149 1313 1359 1343 1361 1094 1357 1589 1361 1140 1452 1445 1500 1666 1305 837 1121 1493 1485 1415 1281 1230 1162 1187 1170 958 834 860 929 902 1018 1362 1543 1360 746 452 810 1393 1590 1705 1663 1746 1761
881 1150 1174 1309 1381 1573 1285 1457 1356 1158 1487 1158 1255 1346 1128 1166 1531 1373 1283 1312 1323 1138 990 1071 1107 990 946 927 1028 721 592 198 936 1492 1326 758 533 1475 1442 1395 1481 1500 1216
895 986 1112 1086 1650 1394 1320 1268 1385 1008 1097 1411 1097 1256 1358 1411 1219 1206 1342 1272 1055 848 720 666 778 841 835 833 970 1001 348 365 271 908 943 884 421 1045 1626 1626 1547 1489 1233
711 728 869 1076 885 1134 988 1332 1418 1415 1218 782 838 909 1052 1159 1204 1188 1040 715 684 714 732 725 741 888 880 764 976 1147 806 413 135 568 800 915 518 786 1128 1368 1385 1458 1436
657 579 598 773 1059 1100 1128 1064 1196 1283 1042 425 468 542 544 455 613 732 562 487 726 814 859 920 989 722 817 1253 809 871 1545 1127 444 343 925 512 558 990 1106 1373 1520 1647 1636
210 394 356 427 600 689 827 851 867 1198 582 150 251 372 380 328 452 383 287 302 503 862 1173 1440 538 511 610 935 812 577 1676 1498 870 524 513 416 706 964 975 1582 1588 1637 1724
97 162 200 341 533 325 426 699 805 888 250 255 460 581 315 195 214 208 200 267 741 24 118 394 97 261 476 792 787 1027 1388 1452 1246 1070 881 171 670 922 1151 1476 1513 1488 1193
0 0 0 134 372 259 326 519 625 466 118 114 106 321 141 87 101 209 351 567 169 5 33 44 516 419 1122 1380 1197 1224 1305 1325 1284 1198 1046 620 483 935 1208 1042 1292 1400 1245
0 0 0 7 199 259 273 330 316 56 0 15 112 141 175 147 168 396 466 270 355 219 40 65 91 274 752 1356 1168 1159 958 1158 1206 1152 1208 813 878 689 968 1026 1533 1538 1356
0 0 0 0 0 41 0 28 0 0 225 288 339 325 559 616 591 476 311 67 40 54 91 137 251 373 622 778 802 1220 1047 1033 1118 1230 1239 1222 880 1004 921 1054 1473 1840 1722
0 0 0 0 0 0 0 0 0 3 155 253 325 362 733 1085 1084 768 530 161 124 47 158 384 579 770 685 596 789 1030 889 900 620 662 733 988 1185 993 1030 1028 1084 1303 1514
0 0 0 0 0 0 0 0 0 0 3 168 509 574 167 421 736 563 215 82 69 107 491 676 1030 698 669 1088 960 1057 563 596 564 574 734 1035 1137 1082 1141 951 917 1025 1148
0 0 0 0 0 0 0 0 0 0 63 238 487 1005 998 339 302 348 351 364 152 211 626 860 1338 1081 1240 971 470 680 583 366 173 340 258 166 636 935 1006 871 731 1021 906
0 0 0 0 0 0 0 0 0 0 28 88 173 424 1377 1317 392 112 352 815 701 296 673 1124 1387 1335 843 477 226 265 525 5 0 0 0 0 0 144 905 1162 1377 1771 1290
0 0 0 0 0 0 0 0 0 35 459 435 300 391 864 1414 786 352 970 1299 1236 787 749 459 349 265 478 621 296 243 457 0 0 0 0 19 64 415 845 1529 1465 1899 1712
0 1 2 0 0 0 0 0 156 461 571 611 689 640 683 951 1318 1149 1196 1417 1374 1177 398 132 204 108 144 680 364 371 303 33 0 0 8 50 128 116 65 59 160 463 766
0 3 3 5 0 0 0 0 122 335 474 576 717 831 865 670 531 824 1006 929 403 278 181 143 110 144 194 280 330 136 78 105 0 0 0 0 0 0 0 0 0 2 8
0 11 20 19 64 24 58 12 76 281 475 734 890 1093 1020 1065 1367 1040 788 592 223 265 129 156 490 720 461 215 24 32 66 111 0 0 0 0 0 0 0 0 0 0 0
0 4 14 33 142 174 180 94 113 335 591 997 701 581 186 124 201 109 213 338 95 103 132 66 68 85 24 86 68 0 0 0 22 0 0 0 0 0 0 0 0 0 0
0 1 0 7 73 193 137 190 261 409 469 280 438 135 19 17 6 8 7 15 86 149 80 7 0 0 0 0 0 0 0 0 0 0 0 0 0 0 0 0 0 0 0

GFSSE_con_mlcape_336.txt.gz
CAPE
656 1205 1612 1674 1887 1777 1647 1574 1563 1586 1574 1167 1063 1248 1568 1577 1422 1339 1322 1255 958 1084 818 708 734 831 1352 1706 1720 1773 1777 1718 1666 1461 1481 1382 1869 1899 2125 2466 2233 2218 2729
612 1182 1277 1547 1726 1672 1716 1565 1562 1444 1378 1094 828 1304 1271 1316 1414 1492 1396 1382 1418 1461 1307 1186 1047 1324 1363 1655 1663 1662 1716 1681 1599 1334 1212 1494 1811 2141 2042 2047 1656 2117 2374
924 1329 1351 1406 1637 1652 1826 1702 1817 1433 1279 1202 1237 1523 1465 1442 1474 1410 1415 1274 1241 1446 1481 1461 1365 1323 1379 1559 1309 1463 1566 1447 1253 1153 1452 1371 1623 2023 1987 1985 1849 2374 2372
989 1143 1191 1568 1619 1687 1745 1771 1721 1683 1670 1541 1680 1663 1510 1454 1609 1537 1315 1569 1425 1509 1270 1197 940 752 649 968 1377 1414 1203 1332 1220 1038 922 1104 1329 1853 2028 1889 2323 2425 2354
790 887 1344 1737 1573 1154 1735 1752 1628 1387 1478 1398 1159 1125 1477 1550 1671 1569 1298 1293 1040 1261 1263 1248 1259 1048 961 728 1128 1114 907 710 574 888 929 829 833 1608 1888 1986 2193 2160 2100
756 886 1174 1628 1466 1267 1219 1451 1478 1392 1514 1330 1579 1561 1714 1347 1204 1488 1293 1612 1383 1418 1285 1212 1170 989 961 972 939 850 790 815 663 233 675 460 842 1313 1789 1147 1594 1833 1924
636 866 990 1158 1270 1141 1245 984 1372 1218 1465 1353 1529 1367 1424 898 1218 1412 1587 1525 1243 1157 1195 1215 1183 1113 1159 1223 1232 1200 1298 1254 1472 703 370 466 1068 1599 1726 1691 1710 1334 1517
541 716 906 1228 1194 1338 1147 1347 1125 1429 1262 1462 1350 1553 915 1313 1724 1546 1367 1231 1248 1196 1226 1304 1251 1130 1064 1141 1051 733 677 193 994 963 776 307 846 1314 1618 1624 1676 1698 1694
426 545 829 689 933 1250 1291 1378 1265 1488 1389 1327 1438 1261 1141 1628 1503 1331 1330 1354 1284 1159 1113 1133 1138 1115 1055 961 936 851 329 115 802 1017 929 571 210 1252 1530 1428 1478 1523 1319
308 354 324 631 843 765 796 1370 1097 1287 1393 1237 1137 1341 1425 1355 1306 1274 1267 992 947 863 976 1165 1247 1260 1239 1013 978 1228 1065 722 624 951 1059 994 318 561 1418 1595 1661 1572 1466
219 172 161 418 492 506 466 812 1312 1524 1146 813 652 952 768 364 491 730 795 590 798 927 1011 1092 1374 967 432 1051 1213 964 1404 1530 850 735 1085 859 510 781 1063 1233 1331 1475 1564
38 29 61 83 166 657 328 578 554 849 324 7 136 301 340 316 447 498 463 194 533 639 600 964 1013 481 585 1170 1288 784 1590 1670 1312 833 923 609 503 881 1174 1281 1540 1442 1670
1 3 3 11 82 150 277 247 216 425 244 24 384 592 321 276 419 191 301 282 649 203 291 823 305 531 844 1246 1313 1339 1564 1720 1335 1186 924 301 580 863 1127 1192 1650 1437 1533
0 0 0 1 18 89 189 226 146 361 119 0 100 575 357 383 335 378 332 488 786 100 209 264 415 1001 1456 1923 1633 1574 1491 1468 1460 1348 1311 529 503 893 1222 1161 1548 1579 1294
0 0 0 0 7 28 117 96 190 116 0 0 9 258 174 140 214 320 455 606 610 421 404 304 233 910 1303 1657 1434 1258 1030 1137 1242 1306 1500 1154 697 827 1075 1349 1276 1390 1365
0 0 0 0 39 63 33 102 30 0 0 0 0 52 283 319 505 497 760 574 461 400 350 332 451 1073 1223 1321 1089 1080 1006 878 894 952 1068 1547 1076 931 1011 1354 1255 1419 1504
0 0 0 0 0 2 67 57 0 0 4 72 217 693 992 1227 1298 1362 1181 1018 521 516 655 956 1542 1484 1381 805 976 943 868 898 851 988 920 1044 1430 1267 1013 1094 1369 1507 1810
0 0 0 0 0 0 0 0 0 145 266 299 380 688 1259 1635 1832 1909 988 626 308 330 774 1153 1404 1365 1009 1024 833 782 778 683 778 572 642 763 1160 1288 1517 1108 1211 1434 1915
9 0 0 0 0 0 0 0 87 346 323 284 385 828 1239 992 959 1402 799 854 1253 443 1112 1294 1282 1585 992 1061 664 613 742 488 258 264 312 165 345 1125 1387 1464 1121 1021 1440
3 127 0 0 0 0 0 0 189 238 416 549 472 843 1121 1354 1421 912 708 1196 1693 1054 880 1503 1433 1345 1310 1213 641 233 290 217 82 77 27 88 299 1077 1337 1883 1798 1561 1025
131 66 38 0 0 0 0 0 156 194 298 299 336 698 1059 1653 1900 1579 800 1255 1900 1791 1810 1212 660 275 124 341 805 368 559 122 53 73 113 235 464 229 783 1707 2201 2180 1781
378 157 226 0 11 57 0 84 43 83 110 301 629 944 1518 1744 2010 2050 1794 1730 1673 1770 978 549 280 109 81 109 146 223 234 353 48 28 41 75 159 133 196 126 686 1648 506
422 469 228 435 41 130 0 98 194 465 717 731 947 1227 1433 1742 1680 1689 1942 2095 1594 1324 924 404 91 27 39 37 181 108 143 122 125 0 0 19 46 0 0 64 32 64 6
329 428 559 666 634 332 399 71 220 208 125 72 325 1213 1705 1805 2025 2093 1638 1245 747 224 232 119 127 37 77 242 498 271 126 334 125 56 0 0 0 0 0 0 1 2 0
386 319 366 653 725 700 439 280 261 367 205 385 1294 1251 557 550 448 401 538 818 210 109 156 76 138 224 407 450 404 286 5 72 207 216 5 0 0 0 0 0 0 0 0
292 216 228 460 867 1038 989 804 596 535 529 1045 962 542 650 534 367 169 154 140 85 86 142 195 191 146 3 26 75 144 1 0 0 21 46 0 0 0 0 0 0 0 0

GFSSE_con_mlcape_339.txt.gz
CAPE
608 855 1716 1672 1964 1594 1671 1807 1506 1054 1042 1122 1142 1301 1323 1149 1169 1185 978 696 566 782 594 742 942 1331 1645 1700 1743 1742 1711 1749 1551 1504 983 1211 1803 1935 1854 2262 1972 2328 2863
779 1041 1494 1619 1869 1663 1601 1705 1606 1248 1189 823 877 1391 1577 1572 1319 1349 1404 1339 1370 1151 1025 845 719 620 938 1665 1642 1785 1776 1652 1336 1229 1060 1623 1990 1551 2110 1661 1209 2343 2805
888 1092 1194 1589 1763 1725 1500 1593 1657 1490 1164 926 1156 1204 1309 1339 1369 1010 1320 1384 1599 1484 1449 1507 1322 1332 1532 1410 1575 1568 1433 1142 1385 1249 1318 1184 1394 1908 2012 1605 130 2412 2304
923 997 980 1153 1622 1792 1691 1619 1543 1460 1279 1130 1462 1483 1273 1166 1443 1482 1278 1523 1391 1335 1273 952 860 847 1284 1301 1409 1224 1298 873 930 1500 1399 1194 1155 1790 1616 1545 1760 2313 2436
806 1003 1331 1244 1731 1545 1573 1598 1712 1625 1555 1550 1357 1409 1155 1541 1556 1381 1563 1311 1428 1488 1321 1266 1099 873 693 1193 1231 905 778 622 909 1357 761 737 782 1620 1896 1489 1535 2188 1946
663 1241 1180 1675 1393 1553 1552 1530 1530 1423 1469 1143 1275 1223 1491 1502 1459 1380 1241 1394 1580 1324 1330 1298 1065 1039 1056 1040 912 826 765 645 841 920 260 464 742 1435 1840 1683 1512 1549 1639
568 1094 1002 1436 1234 1283 1146 1593 1394 1454 1449 1545 1609 1579 1364 1067 1457 1561 1647 1546 1292 1303 1282 1325 1222 1140 1121 1228 1311 1305 1310 1267 1677 314 361 732 1035 1328 1499 1243 1771 1894 1807
425 339 677 1261 1257 1207 1046 1280 1256 1311 1453 1667 1510 1426 1003 1177 1543 1640 1683 1339 1312 1272 1297 1290 1189 1133 1196 1346 1236 909 570 511 765 576 311 941 506 1294 1827 1809 1352 1201 1504
215 346 529 834 1188 1377 1374 1175 1391 1368 1476 1479 1716 1154 1031 1849 1685 1439 1330 1285 1268 1198 1218 1293 1320 1328 1313 1307 1125 985 418 62 367 673 511 954 295 928 1634 1666 1787 1642 1550
86 182 276 258 316 517 668 1288 1275 1573 1464 1367 1542 1137 1553 1565 1446 1313 1055 942 1078 955 1010 1179 1306 1391 1476 1288 1045 1115 836 889 1160 859 1080 792 162 723 1430 1410 1463 1559 1259
34 55 174 118 456 533 336 806 1101 1360 1475 1108 1046 1316 1089 544 603 456 1253 664 873 1008 1047 992 1099 1324 574 470 1171 969 957 1876 660 559 1214 648 312 507 1448 1678 1679 1551 1568
7 30 99 139 199 146 152 650 588 729 425 201 104 369 617 378 594 800 805 276 337 448 303 446 683 615 386 918 1111 1219 860 1508 937 491 1386 689 421 486 885 1286 1476 1383 1543
3 6 14 47 151 152 129 183 167 256 146 25 294 484 512 469 711 497 637 202 614 857 627 955 941 764 754 848 1173 899 876 817 661 742 853 258 425 722 943 1302 1382 1596 1524
2 5 6 26 26 99 184 22 43 107 185 0 212 752 644 662 543 503 574 561 1415 449 390 397 339 957 1145 1435 1059 734 678 539 67 963 245 143 327 769 1202 1097 1274 1871 1608
0 0 1 8 4 20 265 36 150 217 56 2 58 456 495 276 348 583 545 741 761 709 721 445 284 839 1212 990 1157 846 699 385 865 632 1282 804 388 602 1139 1542 1377 1715 1761
0 0 0 0 46 70 10 30 11 60 0 0 0 54 493 291 435 562 803 855 697 639 526 583 852 1084 1221 1178 705 658 286 398 408 345 525 1007 833 632 675 1059 1626 1656 1667
0 0 0 0 25 62 31 114 58 4 0 0 0 90 271 583 836 1131 811 1008 874 803 1021 1043 1457 1270 1355 806 741 595 199 412 148 635 430 1081 1434 1021 899 773 1055 1338 1535
0 0 0 0 0 8 35 79 0 0 0 0 48 256 763 1187 1647 1919 1244 696 853 590 534 1089 987 1225 1162 870 460 104 240 343 543 301 242 601 264 1915 1525 1077 802 1069 1291
0 0 0 0 0 0 5 0 0 0 110 80 122 171 1349 1334 1442 1935 1081 851 1524 668 844 1032 961 1194 392 487 285 130 106 437 132 86 283 252 220 484 978 1994 1012 911 1191
26 0 0 0 0 0 0 0 0 56 124 102 88 180 1262 1187 1235 1308 807 1184 1720 1124 731 1959 1735 1276 790 573 608 377 304 197 61 52 155 275 598 1375 1861 2189 2005 1694 1130
122 137 0 0 0 0 0 0 0 75 80 138 209 278 906 1190 1472 1745 1201 981 1333 1181 2147 1657 1248 1085 665 203 104 113 251 152 57 87 199 460 833 407 448 665 2260 1414 1017
289 233 319 0 0 0 0 0 5 49 70 150 187 387 1049 1381 1481 1518 1498 1075 1894 1623 1713 1354 758 326 265 101 52 101 53 211 103 124 63 122 307 253 318 346 420 532 151
488 512 444 404 100 126 0 0 28 82 89 97 168 757 1169 1721 2016 2024 2167 2142 2548 1140 1388 1094 675 259 37 52 3 68 45 55 68 31 33 79 66 16 62 193 23 2 2
665 775 775 882 448 325 175 8 154 108 53 6 70 604 2106 2591 2565 2056 2041 2040 1863 987 824 493 284 89 10 0 0 35 133 125 25 63 2 4 3 0 0 10 43 2 1
634 785 1019 1309 1286 814 619 97 212 234 261 187 1154 1752 1815 1449 1406 1359 1933 1618 1340 444 406 330 297 212 137 56 94 19 177 299 307 95 108 0 0 0 0 0 2 13 0
808 769 891 1562 1808 1426 1589 854 902 630 456 965 1395 1762 1211 1075 1114 1020 1214 1317 1099 730 374 255 232 143 261 146 112 97 267 169 95 81 35 32 1 0 0 0 0 0 0

GFSSE_con_mlcape_342.txt.gz
CAPE
877 1424 1727 1850 1462 1691 1608 1518 1011 1240 1139 1218 1032 1050 991 1060 1045 927 732 483 694 521 527 726 997 1402 1505 1524 1638 1550 1584 1270 1176 887 947 1195 1400 1584 1682 1861 1719 2396 1952
818 1286 1499 1858 1601 1655 1848 1522 1168 1094 734 956 1306 1576 1348 1290 1176 1227 1070 1099 991 850 673 549 539 951 1483 1425 1594 1514 1544 1192 1231 1120 1211 1833 1574 1412 1443 354 46 1902 2079
771 1072 1309 1759 1658 1582 1746 1646 1430 1181 876 729 1098 1046 1345 1325 1244 1252 1334 1398 1118 1233 1185 1068 864 1342 1267 1473 1427 1130 914 970 1319 1251 1350 1227 1608 1564 1218 62 186 1374 2125
835 943 1253 1720 1654 1534 1683 1648 1507 1176 908 1031 1248 1492 1124 1046 986 1261 1173 1312 1365 1223 719 643 748 1200 1043 1159 1109 726 574 744 1116 372 485 657 951 1642 1590 52 1497 2066 2043
723 832 953 1589 1520 1527 1614 1677 1661 1399 1214 1426 1396 1198 1257 1409 1156 1288 1282 1294 1236 1092 1037 900 696 445 918 986 620 265 318 720 717 55 120 427 799 1437 1337 1534 1542 1811 1925
1167 1209 1013 1478 1513 1547 1469 1596 1467 1466 1305 1196 1237 1102 1139 1389 1373 1474 883 1043 1158 1097 1139 1019 943 931 874 780 634 489 361 529 584 697 454 79 1030 1408 1178 1163 1338 1210 1316
1244 1093 1146 1338 1374 1450 1332 1565 1362 1389 1246 1350 1325 1454 1580 1469 1269 1225 1366 1319 1304 1149 1088 1090 957 914 942 1013 1079 923 853 1241 1472 877 181 551 1068 1254 1457 1379 1371 1233 1677
924 708 664 1124 1295 1102 1509 1301 1407 1348 1370 1345 1525 1442 962 1231 1354 1591 1331 1104 940 961 947 959 914 840 943 1120 1210 977 669 617 360 778 166 290 755 1258 1286 1715 1673 1653 1579
324 304 648 864 1142 1056 1177 1228 1184 1443 1248 1442 1338 1203 910 1395 1641 1325 1128 1000 928 814 790 859 988 1076 1172 1211 1261 1096 740 432 32 353 934 727 1124 1363 1464 1215 991 985 1178
258 130 203 667 753 639 884 1150 1256 1247 1359 1568 1467 820 1650 1593 1236 1053 1005 890 915 719 590 672 831 959 986 1080 1106 830 810 807 225 370 44 610 867 751 1324 1325 1569 1343 1177
139 145 333 222 335 419 677 939 1341 1290 1393 1388 1305 948 1298 830 786 358 1130 422 495 533 535 552 602 654 810 756 570 778 962 1195 1095 93 661 202 289 350 861 1031 1252 1226 989
16 49 121 70 125 429 180 391 704 800 810 533 387 384 880 810 692 355 1138 515 132 158 225 362 487 662 1002 641 0 5 588 39 88 676 790 331 164 228 726 992 1133 1224 1364
2 0 129 257 211 125 416 221 713 904 536 409 491 210 453 770 598 900 821 142 80 441 494 677 765 1053 1241 178 0 3 0 29 14 92 855 634 241 137 431 791 1038 1067 1226
0 4 24 211 145 42 509 44 330 415 191 240 374 677 952 549 446 568 1168 626 1306 969 175 319 208 413 980 728 44 94 177 8 0 101 30 633 444 295 268 481 548 852 1096
0 6 0 34 2 297 145 13 152 141 69 121 595 429 1145 492 511 592 391 759 1099 778 372 633 537 501 1064 819 378 505 125 321 53 232 0 21 442 543 786 624 625 952 1497
0 1 2 7 31 58 343 120 294 187 24 4 202 390 698 421 401 731 544 600 857 874 562 565 345 357 762 938 337 360 124 320 167 99 5 0 396 537 683 1070 799 915 1403
0 0 3 0 11 137 154 114 49 187 0 0 11 492 258 492 1083 619 892 768 1194 1065 939 653 1041 1191 1437 832 17 8 80 64 281 123 91 1 439 1325 1006 1238 1203 1286 1411
0 0 0 0 6 98 118 192 129 40 0 0 0 423 291 525 995 1097 944 1003 1075 671 524 749 1154 733 261 295 920 0 7 4 180 316 421 1010 1421 1435 928 1156 1162 1558 1363
0 0 0 0 0 0 209 175 166 2 0 0 0 279 643 896 1265 1690 1668 1556 1138 625 635 1062 1276 1054 823 729 472 132 93 183 223 188 229 284 432 1240 1428 1484 82 572 1014
0 0 0 0 0 0 235 190 3 0 2 170 74 88 830 1083 1302 1943 1594 1217 1389 1189 1221 1343 1046 472 628 215 104 157 272 113 17 60 132 561 868 518 687 1305 0 0 605
0 0 0 0 0 0 73 0 0 0 104 110 93 68 1185 1738 1253 1265 1086 1328 1326 852 110 743 1205 1132 665 151 30 0 15 0 0 7 42 186 486 447 352 142 1352 973 1027
182 17 0 0 39 0 0 0 0 0 196 112 165 248 600 1200 1378 1697 1463 1243 330 79 0 1 507 318 282 109 3 0 0 49 6 0 22 65 148 432 222 56 52 64 104
426 474 9 0 3 0 0 0 0 303 328 173 285 766 625 1054 1441 1799 1735 784 776 275 27 761 818 217 24 43 0 0 0 0 0 49 17 52 44 7 231 50 8 1 0
559 692 880 135 49 47 35 0 0 12 184 103 281 1713 1697 1525 1938 1799 1688 1705 1232 925 991 911 418 184 0 0 0 7 0 0 4 7 3 2 2 1 19 108 15 0 0
628 894 1240 1103 511 296 36 300 0 385 117 496 1009 1051 1829 1936 1670 1654 1973 2201 1939 932 836 708 471 351 218 39 3 2 1 0 2 61 66 20 0 0 0 0 40 0 0
875 642 1293 1704 1074 693 555 18 758 112 590 791 796 780 1089 1507 1344 1503 1674 1661 1281 870 851 550 679 580 556 167 53 49 70 46 47 75 90 15 0 0 0 0 0 20 4